| time (UTC) | temp C | wind direction | speed KPH | gust KPH | rain 1hr cm | rain 24hr cm | rain mn cm | humidity % | barometer mb |
| 20260507004536 | 17 | 326 | 3.2 | 6.4 | 0.00 | 0.03 | 0.03 | 100 | 1056.0 |
| 20260507003535 | 17 | 7 | 3.2 | 8.0 | 0.00 | 0.03 | 0.03 | 100 | 1055.9 |
| 20260507002535 | 17 | 78 | 11.3 | 16.1 | 0.00 | 0.03 | 0.03 | 100 | 1055.7 |
| 20260506235632 | 17 | 76 | 19.3 | 29.0 | 0.00 | 0.03 | 0.03 | 100 | 1055.6 |
| 20260506234636 | 16 | 76 | 25.7 | 30.6 | 0.00 | 0.03 | 0.03 | 100 | 1055.6 |
| 20260506233734 | 16 | 89 | 17.7 | 29.0 | 0.00 | 0.03 | 0.03 | 100 | 1055.3 |
| 20260506230834 | 17 | 83 | 16.1 | 25.7 | 0.00 | 0.03 | 0.03 | 100 | 1055.1 |
| 20260506225933 | 17 | 88 | 4.8 | 8.0 | 0.00 | 0.03 | 0.03 | 100 | 1055.3 |
| 20260506224933 | 17 | 75 | 6.4 | 19.3 | 0.00 | 0.03 | 0.03 | 100 | 1055.1 |
| 20260506222932 | 18 | 56 | 4.8 | 12.9 | 0.00 | 0.03 | 0.03 | 100 | 1055.0 |
| 20260506221935 | 18 | 116 | 6.4 | 25.7 | 0.00 | 0.03 | 0.03 | 100 | 1054.8 |
| 20260506215033 | 18 | 81 | 17.7 | 32.2 | 0.00 | 0.03 | 0.03 | 100 | 1054.6 |
| 20260506214033 | 18 | 98 | 12.9 | 29.0 | 0.00 | 0.03 | 0.03 | 100 | 1054.6 |
| 20260506213036 | 19 | 85 | 29.0 | 41.8 | 0.00 | 0.03 | 0.03 | 100 | 1054.5 |
| 20260506212033 | 20 | 95 | 9.7 | 24.1 | 0.00 | 0.03 | 0.03 | 100 | 1054.6 |
| 20260506211033 | 20 | 82 | 14.5 | 29.0 | 0.00 | 0.03 | 0.03 | 100 | 1054.3 |
| 20260506210037 | 20 | 148 | 4.8 | 12.9 | 0.00 | 0.03 | 0.03 | 100 | 1054.7 |
| 20260506205034 | 20 | 85 | 16.1 | 29.0 | 0.00 | 0.03 | 0.03 | 100 | 1054.7 |
| 20260506204033 | 21 | 120 | 12.9 | 30.6 | 0.00 | 0.03 | 0.03 | 100 | 1054.8 |
| 20260506203035 | 20 | 85 | 19.3 | 35.4 | 0.00 | 0.03 | 0.03 | 100 | 1054.8 |
| 20260506202132 | 20 | 77 | 32.2 | 38.6 | 0.00 | 0.03 | 0.03 | 100 | 1054.6 |
| 20260506201135 | 21 | 99 | 12.9 | 22.5 | 0.00 | 0.03 | 0.03 | 100 | 1054.6 |
| 20260506200133 | 22 | 102 | 8.0 | 17.7 | 0.00 | 0.03 | 0.03 | 100 | 1054.4 |
| 20260506195133 | 22 | 98 | 14.5 | 19.3 | 0.00 | 0.03 | 0.03 | 100 | 1054.0 |
| 20260506193233 | 23 | 67 | 19.3 | 25.7 | 0.00 | 0.03 | 0.03 | 100 | 1054.1 |
| 20260506192234 | 23 | 78 | 16.1 | 25.7 | 0.00 | 0.03 | 0.03 | 100 | 1054.0 |
| 20260506191235 | 23 | 78 | 16.1 | 22.5 | 0.00 | 0.03 | 0.03 | 100 | 1054.2 |
| 20260506190332 | 23 | 66 | 12.9 | 17.7 | 0.00 | 0.03 | 0.03 | 100 | 1054.6 |
| 20260506185333 | 22 | 60 | 4.8 | 14.5 | 0.00 | 0.03 | 0.03 | 100 | 1054.5 |
| 20260506184432 | 22 | 110 | 11.3 | 14.5 | 0.00 | 0.03 | 0.03 | 100 | 1054.4 |
| 20260506182432 | 21 | 140 | 3.2 | 6.4 | 0.00 | 0.03 | 0.03 | 100 | 1054.7 |
| 20260506181435 | 21 | 123 | 11.3 | 12.9 | 0.00 | 0.03 | 0.03 | 100 | 1054.6 |
| 20260506180434 | 20 | 118 | 3.2 | 6.4 | 0.00 | 0.03 | 0.03 | 100 | 1054.5 |
| 20260506175534 | 20 | 125 | 12.9 | 16.1 | 0.00 | 0.03 | 0.03 | 100 | 1054.6 |
| 20260506174534 | 19 | 99 | 8.0 | 9.7 | 0.00 | 0.03 | 0.03 | 100 | 1054.6 |
| 20260506173532 | 18 | 100 | 9.7 | 11.3 | 0.00 | 0.03 | 0.03 | 100 | 1054.7 |
| 20260506172535 | 18 | 85 | 9.7 | 12.9 | 0.00 | 0.03 | 0.03 | 100 | 1054.9 |
| 20260506171632 | 17 | 102 | 11.3 | 16.1 | 0.00 | 0.03 | 0.03 | 100 | 1054.7 |
| 20260506170635 | 17 | 122 | 8.0 | 16.1 | 0.00 | 0.03 | 0.03 | 100 | 1054.8 |
| 20260506165731 | 17 | 119 | 14.5 | 17.7 | 0.00 | 0.03 | 0.03 | 100 | 1055.2 |
| 20260506164734 | 17 | 123 | 16.1 | 22.5 | 0.03 | 0.03 | 0.03 | 100 | 1055.1 |
| 20260506163833 | 17 | 80 | 14.5 | 29.0 | 0.03 | 0.03 | 0.03 | 100 | 1055.2 |
| 20260506162834 | 17 | 68 | 20.9 | 35.4 | 0.03 | 0.03 | 0.03 | 100 | 1055.8 |
| 20260506161834 | 18 | 82 | 24.1 | 35.4 | 0.03 | 0.03 | 0.03 | 100 | 1056.0 |
| 20260506160834 | 18 | 107 | 12.9 | 27.4 | 0.03 | 0.03 | 0.03 | 100 | 1055.4 |
| 20260506155833 | 20 | 105 | 19.3 | 35.4 | 0.03 | 0.03 | 0.03 | 100 | 1055.6 |
| 20260506154932 | 23 | 83 | 24.1 | 45.1 | 0.00 | 0.00 | 0.00 | 100 | 1055.0 |
| 20260506153932 | 24 | 92 | 9.7 | 11.3 | 0.00 | 0.00 | 0.00 | 100 | 1054.8 |
| 20260506152933 | 23 | 125 | 6.4 | 8.0 | 0.00 | 0.00 | 0.00 | 100 | 1054.7 |
| 20260506152031 | 23 | 120 | 8.0 | 9.7 | 0.00 | 0.00 | 0.00 | 100 | 1054.1 |
| 20260506151034 | 23 | 149 | 6.4 | 8.0 | 0.00 | 0.00 | 0.00 | 100 | 1054.3 |
| 20260506150033 | 23 | 137 | 6.4 | 8.0 | 0.00 | 0.00 | 0.00 | 100 | 1054.0 |
| 20260506142034 | 24 | 138 | 6.4 | 11.3 | 0.00 | 0.00 | 0.00 | 100 | 1053.0 |
| 20260506141133 | 24 | 136 | 3.2 | 6.4 | 0.00 | 0.00 | 0.00 | 100 | 1053.3 |
| 20260506140132 | 23 | 30 | 0.0 | 3.2 | 0.00 | 0.00 | 0.00 | 100 | 1053.4 |
| 20260506135134 | 23 | 135 | 3.2 | 4.8 | 0.00 | 0.00 | 0.00 | 100 | 1052.8 |
| 20260506134232 | 23 | 143 | 6.4 | 11.3 | 0.00 | 0.00 | 0.00 | 100 | 1052.7 |
| 20260506133234 | 23 | 142 | 6.4 | 8.0 | 0.00 | 0.00 | 0.00 | 100 | 1052.5 |
| 20260506132233 | 23 | 143 | 6.4 | 8.0 | 0.00 | 0.00 | 0.00 | 100 | 1052.5 |
| 20260506131235 | 23 | 140 | 8.0 | 11.3 | 0.00 | 0.00 | 0.00 | 100 | 1052.5 |
| 20260506130331 | 23 | 135 | 6.4 | 11.3 | 0.00 | 0.00 | 0.00 | 100 | 1052.5 |
| 20260506125334 | 23 | 138 | 8.0 | 11.3 | 0.00 | 0.00 | 0.00 | 100 | 1052.3 |
| 20260506124333 | 23 | 136 | 4.8 | 8.0 | 0.00 | 0.00 | 0.00 | 100 | 1052.3 |
| 20260506122431 | 23 | 35 | 1.6 | 4.8 | 0.00 | 0.00 | 0.00 | 100 | 1052.4 |
| 20260506121432 | 23 | 160 | 0.0 | 1.6 | 0.00 | 0.00 | 0.00 | 100 | 1052.5 |
| 20260506120531 | 23 | 299 | 0.0 | 3.2 | 0.00 | 0.00 | 0.00 | 100 | 1052.3 |
| 20260506115533 | 23 | 64 | 1.6 | 4.8 | 0.00 | 0.00 | 0.00 | 100 | 1052.0 |
| 20260506113535 | 23 | 108 | 1.6 | 3.2 | 0.00 | 0.00 | 0.00 | 100 | 1052.2 |
| 20260506112631 | 23 | 53 | 0.0 | 1.6 | 0.00 | 0.00 | 0.00 | 100 | 1052.1 |
| 20260506111631 | 23 | 69 | 1.6 | 4.8 | 0.00 | 0.00 | 0.00 | 100 | 1052.1 |
| 20260506110631 | 23 | 151 | 3.2 | 9.7 | 0.00 | 0.00 | 0.00 | 100 | 1052.1 |
| 20260506105631 | 23 | 235 | 3.2 | 11.3 | 0.00 | 0.00 | 0.00 | 100 | 1052.1 |
| 20260506104631 | 23 | 134 | 1.6 | 3.2 | 0.00 | 0.00 | 0.00 | 100 | 1052.1 |
| 20260506103633 | 23 | 77 | 1.6 | 4.8 | 0.00 | 0.00 | 0.00 | 100 | 1051.9 |
| 20260506102634 | 23 | 57 | 0.0 | 3.2 | 0.00 | 0.00 | 0.00 | 100 | 1051.6 |
| 20260506101732 | 23 | 320 | 1.6 | 4.8 | 0.00 | 0.00 | 0.00 | 100 | 1051.6 |
| 20260506100732 | 23 | 41 | 3.2 | 11.3 | 0.00 | 0.00 | 0.00 | 100 | 1051.4 |
| 20260506094831 | 23 | 175 | 4.8 | 14.5 | 0.00 | 0.00 | 0.00 | 100 | 1051.2 |
| 20260506093831 | 23 | 230 | 3.2 | 12.9 | 0.00 | 0.00 | 0.00 | 100 | 1051.0 |
| 20260506092835 | 23 | 81 | 3.2 | 6.4 | 0.00 | 0.00 | 0.00 | 100 | 1051.0 |
| 20260506091930 | 23 | 262 | 4.8 | 11.3 | 0.00 | 0.00 | 0.00 | 100 | 1051.0 |
| 20260506090931 | 23 | 84 | 3.2 | 11.3 | 0.00 | 0.00 | 0.00 | 100 | 1050.6 |
| 20260506085933 | 23 | 258 | 1.6 | 8.0 | 0.00 | 0.00 | 0.00 | 100 | 1050.7 |
| 20260506085032 | 23 | 93 | 4.8 | 14.5 | 0.00 | 0.00 | 0.00 | 100 | 1050.9 |
| 20260506084035 | 23 | 63 | 3.2 | 6.4 | 0.00 | 0.00 | 0.00 | 100 | 1050.9 |
| 20260506083132 | 23 | 105 | 4.8 | 11.3 | 0.00 | 0.00 | 0.00 | 100 | 1050.6 |
| 20260506081231 | 23 | 175 | 6.4 | 17.7 | 0.00 | 0.00 | 0.00 | 100 | 1050.8 |
| 20260506073432 | 23 | 152 | 3.2 | 11.3 | 0.00 | 0.00 | 0.00 | 100 | 1051.1 |
| 20260506071533 | 23 | 300 | 3.2 | 11.3 | 0.00 | 0.00 | 0.00 | 100 | 1051.4 |
| 20260506070534 | 23 | 55 | 1.6 | 6.4 | 0.00 | 0.00 | 0.00 | 100 | 1051.4 |
| 20260506060532 | 23 | 190 | 3.2 | 8.0 | 0.00 | 0.00 | 0.00 | 100 | 1051.4 |
| 20260506050632 | 24 | 177 | 6.4 | 14.5 | 0.00 | 0.00 | 0.00 | 100 | 1051.6 |
| 20260506044723 | 24 | 61 | 4.8 | 9.7 | 0.00 | 0.00 | 0.00 | 100 | 1051.4 |
| 20260506044621 | 24 | 303 | 4.8 | 9.7 | 0.00 | 0.00 | 0.00 | 100 | 1051.5 |
| 20260506043621 | 24 | 326 | 1.6 | 4.8 | 0.00 | 0.00 | 0.00 | 100 | 1051.5 |
| 20260506042622 | 25 | 40 | 3.2 | 11.3 | 0.00 | 0.00 | 0.00 | 100 | 1051.5 |
| 20260506041721 | 25 | 149 | 3.2 | 8.0 | 0.00 | 0.00 | 0.00 | 100 | 1051.3 |
| 20260506040721 | 25 | 240 | 4.8 | 8.0 | 0.00 | 0.00 | 0.00 | 100 | 1051.3 |
| 20260506035723 | 25 | 62 | 3.2 | 6.4 | 0.00 | 0.00 | 0.00 | 100 | 1051.2 |
| 20260506034721 | 25 | 93 | 1.6 | 6.4 | 0.00 | 0.00 | 0.00 | 100 | 1051.1 |
| 20260506033723 | 25 | 105 | 6.4 | 11.3 | 0.00 | 0.00 | 0.00 | 100 | 1050.9 |
| 20260506032721 | 25 | 99 | 3.2 | 8.0 | 0.00 | 0.00 | 0.00 | 100 | 1051.0 |
| 20260506031722 | 25 | 124 | 3.2 | 6.4 | 0.00 | 0.00 | 0.00 | 100 | 1050.6 |
| 20260506030721 | 25 | 163 | 3.2 | 6.4 | 0.00 | 0.00 | 0.00 | 100 | 1050.5 |
| 20260506025820 | 25 | 83 | 3.2 | 11.3 | 0.00 | 0.00 | 0.00 | 100 | 1050.5 |
| 20260506023921 | 25 | 88 | 3.2 | 8.0 | 0.00 | 0.00 | 0.00 | 100 | 1050.1 |
| 20260506022922 | 26 | 99 | 3.2 | 9.7 | 0.00 | 0.00 | 0.00 | 100 | 1049.8 |
| 20260506021919 | 26 | 145 | 3.2 | 6.4 | 0.00 | 0.00 | 0.00 | 100 | 1049.5 |
| 20260506020921 | 26 | 183 | 3.2 | 9.7 | 0.00 | 0.00 | 0.00 | 100 | 1049.5 |
| 20260506015919 | 26 | 127 | 3.2 | 9.7 | 0.00 | 0.00 | 0.00 | 100 | 1049.2 |
| 20260506014923 | 26 | 226 | 1.6 | 6.4 | 0.00 | 0.00 | 0.00 | 100 | 1049.3 |
| 20260506013021 | 27 | 108 | 3.2 | 11.3 | 0.00 | 0.00 | 0.00 | 100 | 1049.1 |
| 20260506012022 | 27 | 67 | 1.6 | 6.4 | 0.00 | 0.00 | 0.00 | 100 | 1049.2 |
| 20260506011020 | 27 | 27 | 1.6 | 4.8 | 0.00 | 0.00 | 0.00 | 100 | 1049.3 |